Regional Weather Roundup
Issued by NWS

Home | Current Version | Previous Version | Text Only | Print | Product List | Glossary On
Versions: 1 2 3 4 5 6 7 8 9 10 11 12 13 14 15 16 17 18 19 20 21 22 23 24 25 26 27 28 29 30 31 32 33 34 35 36 37 38 39 40 41 42 43 44 45 46 47 48 49 50
000
ASMX46 KSGX 181303
RWRMX

MEXICAN WEATHER ROUNDUP
NATIONAL WEATHER SERVICE SAN DIEGO CA
500 AM PST THU DEC 18 2014

BAJA CALIFORNIA

CITY           SKY/WX    TMP DP  RH WIND       PRES   REMARKS
ENSENADA NW      N/A     55  32  41 E6        30.14R
TIJUANA        PTCLDY    50  43  76 CALM      30.16R

NORTHWESTERN MEXICO

CITY           SKY/WX    TMP DP  RH WIND       PRES   REMARKS
CHIHUAHUA      PTCLDY    30  19  64 S7        30.15  WCI  23
HERMOSILLO     CLOUDY    57  48  72 SE3       30.07F

NORTHEASTERN MEXICO

CITY           SKY/WX    TMP DP  RH WIND       PRES   REMARKS
MONTERREY      FOG       63  61  94 CALM      30.02R VSB 1/8
NUEVO LAREDO   DRZL/FOG  55  55 100 NW9       30.08  VSB 1
PIEDRAS NEGRAS FOG       54  52  94 NW6       30.10  VSB 1
REYNOSA        CLOUDY    68  64  88 S6        30.00
SALTILLO       CLEAR     54  48  82 CALM      30.15
TORREON        MOCLDY    50  39  66 CALM      30.12R
VICTORIA       CLOUDY    68  68 100 S6        30.01

WESTERN MEXICO

CITY           SKY/WX    TMP DP  RH WIND       PRES   REMARKS
AGUASCALIENTES PTCLDY    48  39  71 NE5       30.27
COLIMA         PTCLDY    68  57  68 CALM      30.07R
DURANGO        CLOUDY    41  30  65 SE7       30.23R
GUADALAJARA    PTCLDY    52  46  82 CALM      30.21
MAZATLAN       PTCLDY    55  54  94 N8        29.96R
PTO. VALLARTA  PTCLDY    66  64  94 CALM      29.94R
URUAPAN        PTCLDY    57  54  88 CALM      30.21
ZACATECAS      PTCLDY    41  34  75 S9        30.26R

CENTRAL MEXICO

CITY           SKY/WX    TMP DP  RH WIND       PRES   REMARKS
CUERNAVACA     CLEAR     59  48  67 CALM      30.18
LEON           PTCLDY    50  45  81 CALM      30.32R
MEXICO CITY    CLEAR     50  43  76 E5        30.35R
MORELIA        CLEAR     37  36  93 CALM      30.27
POZA RICA      CLOUDY    66  64  94 CALM      30.01R FOG
PUEBLA         MOCLDY    41  39  93 NW5       30.35R
QUERETARO      CLEAR     41  37  87 E5        30.32S
S. LUIS POTOSI MOCLDY    52  50  93 N6        30.23R
TAMPICO        MOCLDY    70  66  88 CALM      29.99S
TOLUCA         FOG       34  34 100 CALM      30.41R VSB 1/2
VERACRUZ       FOG       63  61  94 W6        30.03R VSB 1/2

SOUTHERN MEXICO

CITY           SKY/WX    TMP DP  RH WIND       PRES   REMARKS
ACAPULCO       CLEAR     73  70  88 N3        29.95R
B. DE HUATULCO   N/A    N/A N/A N/A MISG        N/A
MINATITLAN     MOCLDY    72  72 100 CALM      30.00
OAXACA         PTCLDY    46  45  93 N6        30.27S
PTO. ESCONDIDO MOCLDY    72  66  83 E13       30.10
TAPACHULA      PTCLDY    72  66  83 E12       29.95R
TUX. GUTIERREZ PTCLDY    55  54  94 CALM      30.08R FOG
VILLAHERMOSA   CLEAR     66  64  94 CALM      30.05R
ZIHUATANEJO      N/A    N/A N/A N/A MISG        N/A

YUCATAN PENINSULA

CITY           SKY/WX    TMP DP  RH WIND       PRES   REMARKS
CAMPECHE       CLEAR     64  61  88 CALM      30.06R
CANCUN         PTCLDY    61  59  94 N3        30.10R
CHETUMAL       CLEAR     66  61  82 CALM      30.07S
C. DEL CARMEN  CLEAR     72  66  83 E8        30.04
COZUMEL        PTCLDY    59  59 100 SE3       30.08R
MERIDA         CLEAR     61  57  88 E6        30.10R

$$



USA.gov is the U.S. government's official web portal to all federal, state and local government web resources and services.